Content
SEND FEEDBACK

Daily
Averages
Monthly
Summary
Ukraine

DNIPROPETROVS'K, UKRAINE


Home > Europe > Ukraine
Elevation: 466 feet     Latitude: 48 22N     Longitude: 035 05E

WEATHER
 
SELECT A DAY
Number of Records: 222,470;   Date Range: 2/14/99 - 7/29/14
 
SHARE

PRINT THIS DATA

[ ← Previous Day ]
WEATHER ALMANAC - JANUARY 23, 2013
[ Next Day → ]
[ °C ]   °F
Weather ElementAverageHighLow
Temperature38.2 °F43 °F (5:00 am)30.2 °F (10:00 pm)
Dewpoint37.8 °F43 °F (5:00 am)30.2 °F (8:30 pm)
Humidity98.2 %100 % (12:30 am)87 % (3:30 pm)
Barometer29.60 in29.69 in (8:00 pm)29.53 in (4:00 am)
Wind Speed8.4 mph15.7 mph (1:00 pm)
Weather ElementAverage
Visibility1.6 mi
Wind DirectionSW (230 °)

Weather ElementTotal
Precipitation---
Heating Degree Days28.4 (Base 65)
Averaged from 54 records on January 23, 2013
WEATHER CONDITIONS BREAKOUT
WIND DIRECTION BREAKOUT
WEATHER BY HOUR - JANUARY 23, 2013
[ °C ]   °F
Local TimeTemperatureDewpointHumidityBarometerVisibilityWind DirectionWind SpeedGust SpeedPrecipitationEventsConditions
12:30 AM42.8 °F42.8 °F100 %29.56 in0.1 miESE (120°)8.9 mphFog-RainRain
1:00 AM42.8 °F42.8 °F100 %29.56 in0.1 miSE (130°)2.2 mphFog-RainRain
1:30 AM42.8 °F42.8 °F100 %29.56 in0.0 miSE (140°)6.7 mphFog-RainLight Rain
2:00 AM42.0 °F42.0 °F100 %29.58 in0.0 miSE (130°)4.5 mphRainLight Rain
2:00 AM42.8 °F42.8 °F100 %29.56 in0.0 miSE (130°)4.5 mphFog-RainLight Rain
2:30 AM39.2 °F39.2 °F100 %29.56 in0.0 miEast (80°)4.5 mphFogFog
3:00 AM42.8 °F42.8 °F100 %29.56 in0.1 miSSE (150°)4.5 mphFogFog
3:30 AM42.8 °F42.8 °F100 %29.56 in0.1 miSSE (160°)6.7 mphFogFog
4:00 AM42.8 °F42.8 °F100 %29.53 in0.1 miSouth (170°)6.7 mph
4:30 AM42.8 °F42.8 °F100 %29.53 in0.1 miSouth (190°)6.7 mphFogFog
5:00 AM43.0 °F43.0 °F98 %29.57 in0.0 miSouth (180°)4.5 mphFogHeavy Fog
5:00 AM42.8 °F42.8 °F100 %29.53 in0.0 miVariable4.5 mphFogFog
5:30 AM42.8 °F42.8 °F100 %29.53 in0.0 miSouth (180°)4.5 mphFogFog
6:00 AM42.8 °F42.8 °F100 %29.53 in0.0 miSSW (200°)4.5 mphFogFog
6:30 AM42.8 °F42.8 °F100 %29.53 in0.0 miSouth (190°)6.7 mphFogFog
7:00 AM42.8 °F42.8 °F100 %29.56 in0.0 miSSW (200°)8.9 mphFogFog
7:30 AM42.8 °F42.8 °F100 %29.56 in0.0 miSSW (200°)6.7 mphFogFog
8:00 AM42.0 °F42.0 °F98 %29.59 in0.0 miWSW (240°)4.5 mphFogHeavy Fog
8:00 AM41.0 °F41.0 °F100 %29.56 in0.0 miSSW (200°)6.7 mphFogFog
8:30 AM41.0 °F41.0 °F100 %29.56 in0.0 miSSW (200°)4.5 mphFogFog
9:00 AM42.8 °F42.8 °F100 %29.56 in0.0 miSouth (190°)4.5 mphFogFog
9:30 AM42.8 °F42.8 °F100 %29.56 in0.0 miSSW (210°)6.7 mphFogFog
10:00 AM42.8 °F42.8 °F100 %29.56 in0.0 miSW (220°)6.7 mphFogFog
10:30 AM42.8 °F42.8 °F100 %29.56 in0.1 miSW (230°)8.9 mphFogFog
11:00 AM43.0 °F43.0 °F98 %29.59 in1.0 miSW (230°)8.9 mphFogHeavy Fog
11:00 AM42.8 °F42.8 °F100 %29.56 in0.9 miSW (230°)8.9 mphOvercast
11:30 AM42.8 °F41.0 °F93 %29.56 in1.5 miSW (230°)8.9 mphLight Drizzle
12:00 PM41.0 °F41.0 °F100 %29.56 in6.2 miWSW (250°)11.2 mphOvercast
12:30 PM41.0 °F39.2 °F93 %29.56 in6.2 miWSW (250°)11.2 mphOvercast
1:00 PM39.2 °F39.2 °F100 %29.59 in6.2 miWest (260°)15.7 mphOvercast
1:30 PM37.4 °F37.4 °F100 %29.59 in1.4 miWest (270°)15.7 mphOvercast
2:00 PM37.0 °F36.0 °F95 %29.63 in2.0 miWest (270°)13.4 mphMist
2:00 PM37.4 °F35.6 °F93 %29.59 in1.9 miWest (270°)15.7 mphOvercast
2:30 PM35.6 °F35.6 °F100 %29.59 in6.2 miWest (280°)13.4 mphOvercast
3:00 PM35.6 °F33.8 °F93 %29.62 in6.2 miWest (280°)13.4 mphOvercast
3:30 PM35.6 °F32.0 °F87 %29.62 in6.2 miWest (280°)15.7 mphOvercast
4:00 PM33.8 °F32.0 °F93 %29.62 in6.2 miWest (280°)11.2 mphOvercast
4:30 PM33.8 °F32.0 °F93 %29.65 in6.2 miWest (280°)13.4 mphOvercast
5:00 PM33.0 °F32.0 °F94 %29.68 in6.0 miWest (280°)8.9 mphOvercast
5:00 PM33.8 °F32.0 °F93 %29.65 in6.2 miWest (270°)13.4 mphOvercast
5:30 PM33.8 °F32.0 °F93 %29.65 in3.1 miWNW (290°)8.9 mphOvercast
6:00 PM32.0 °F32.0 °F100 %29.65 inWNW (300°)8.9 mphOvercast
6:30 PM32.0 °F32.0 °F100 %29.65 inWNW (300°)8.9 mphOvercast
7:00 PM32.0 °F32.0 °F100 %29.65 in1.2 miWNW (290°)8.9 mphOvercast
7:30 PM32.0 °F32.0 °F100 %29.65 in2.2 miWNW (300°)11.2 mphOvercast
8:00 PM32.0 °F31.0 °F95 %29.69 in1.0 miWNW (290°)6.7 mphMist
8:00 PM32.0 °F32.0 °F100 %29.65 in0.8 miWNW (300°)11.2 mphOvercast
8:30 PM32.0 °F30.2 °F93 %29.65 in1.0 miWNW (290°)8.9 mphOvercast
9:00 PM32.0 °F32.0 °F100 %29.65 in0.3 miNW (310°)6.7 mphFogLight Freezing Fog
9:30 PM32.0 °F32.0 °F100 %29.65 inWNW (290°)6.7 mphFogLight Freezing Fog
10:00 PM30.2 °F30.2 °F100 %29.65 in0.5 miWNW (300°)6.7 mphFogLight Freezing Fog
10:30 PM30.2 °F30.2 °F100 %29.68 in0.7 miWNW (300°)6.7 mphOvercast
11:00 PM30.2 °F30.2 °F100 %29.68 in1.0 miNW (310°)6.7 mphOvercast
11:30 PM30.2 °F30.2 °F100 %29.68 in0.9 miWNW (300°)6.7 mphOvercast
Hourly data recorded from UKDD, located miles away from Dnipropetrovs'k, Ukraine







STORIES FROM OUR PARTNERS